Location: Cahas Mountain Overlook
(37.0833°N, 80.1000°W)
Time: 07:24:44
(UTC-04:00)

Explorer 7 - Pass Details

Date: 11 February 2026
Orbit: 430 x 540 km, 50.2° (Epoch: 14 March)

Event Time Altitude Azimuth Distance (km) Brightness Sun altitude
Rises 15:48:23 0° 184° (S) 2,414 10.7 21.7°
Reaches altitude 10° 15:51:35 10° 151° (SSE) 1,574 9.3 21.2°
Maximum altitude 15:52:59 12° 128° (SE) 1,469 8.9 21.0°
Drops below altitude 10° 15:54:25 10° 104° (ESE) 1,603 8.9 20.8°
Sets 15:57:45 0° 72° (ENE) 2,516 9.6 20.2°
